Location: Unspecified
(0.0000°N, 0.0000°E)
Time: 11:44:42
(UTC+00:00)

Vanguard 2 - Pass Details

Date: 16 October 2022
Orbit: 553 x 2933 km, 32.9° (Epoch: 29 November)

Event Time Altitude Azimuth Distance (km) Brightness Sun altitude
Exits shadow 03:48:24 22° 181° (S) 1,567 9.1 -28.9°
Maximum altitude 03:49:55 26° 152° (SSE) 1,339 9.0 -28.6°
Drops below altitude 10° 03:53:30 10° 94° (E) 1,912 10.5 -27.7°
Sets 03:55:50 0° 80° (E) 2,731 11.5 -27.1°
